Tracking 29892 objects as of 21-Nov-2024
HD Live streaming from Space Station
objects crossing your sky now

CZ-6A DEB

Track CZ-6A DEB now!
10-day predictions


NORAD ID: 54476
Int'l Code: 2022-151HC
Perigee: 679.4 km
Apogee: 843.1 km
Inclination: 98.7 °
Period: 99.9 minutes
Semi major axis: 7132 km
RCS: Unknown
Launch date: November 11, 2022
Source: People's Republic of China (PRC)
Launch site: Taiyaun Space Center, China (TSC)

Note: This is SATELLITE DEBRIS
Your satellite tracking list
Your tracking list is empty




NASA's NSSDC Master Catalog

Two Line Element Set (TLE):
1 54476U 22151HC  24325.53282655  .00008975  00000-0  25759-2 0  9998
2 54476  98.6564 345.1179 0114768 284.3371  74.5098 14.41323394105880
Source of the keplerian elements: AFSPC